Wind_Speed
43 43 44 44 44 44 45 45 46 46 47 47 46 45 45 46 46 46 45 46 46 46 46 47 46 46 45 45 45 45 45 46 47 47 47 47 47 47 46 45 44 44 43
44 44 43 44 45 45 45 45 46 46 46 47 46 46 45 46 47 46 46 46 46 46 47 46 47 46 46 46 47 46 46 47 47 48 48 49 49 48 48 47 46 46 45
44 44 44 44 46 46 46 46 46 46 46 47 47 47 47 47 47 47 47 47 47 47 47 47 48 48 48 48 48 48 47 47 48 48 48 49 49 49 48 48 47 47 47
43 44 45 45 45 46 46 45 46 46 46 47 47 48 48 47 47 48 48 48 48 48 48 48 48 49 49 48 48 48 48 48 48 49 49 49 48 49 49 48 49 48 48
43 43 44 45 45 45 46 45 45 46 46 47 47 48 49 48 48 48 49 49 49 49 49 49 49 50 50 50 50 48 48 49 49 50 50 49 50 50 50 50 50 50 50
43 44 44 44 45 45 45 45 46 46 47 47 48 48 49 49 49 49 50 50 50 50 50 50 50 49 50 51 50 49 49 49 50 51 51 51 52 52 52 52 52 52 51
43 43 43 43 44 44 45 45 46 46 47 47 48 49 49 50 50 50 50 50 50 51 51 51 52 51 51 51 52 51 51 51 51 52 52 52 53 54 54 54 53 53 52
43 42 42 42 43 44 44 45 45 46 46 47 47 48 49 49 50 51 51 51 50 50 51 51 52 53 52 52 53 52 52 52 52 53 53 53 53 54 55 55 54 54 54
42 42 42 43 43 44 44 44 45 46 46 46 47 47 48 49 50 51 51 51 51 51 51 51 52 53 53 53 54 54 53 53 54 54 54 54 54 55 56 56 56 55 55
40 41 42 43 43 43 43 44 45 46 46 46 47 47 47 48 49 50 51 52 53 53 53 52 52 53 53 54 55 54 54 54 54 55 56 56 56 56 56 56 57 57 56
39 41 42 42 43 43 43 44 45 46 47 47 48 48 48 48 49 49 50 52 53 54 54 53 53 53 53 54 55 55 55 55 55 56 56 56 56 56 57 57 57 57 56
37 38 40 41 41 41 43 44 45 46 47 47 48 48 49 49 49 49 50 51 53 54 54 54 54 55 55 55 55 55 56 55 55 56 56 56 55 55 56 57 57 56 55
37 37 37 38 39 41 42 43 44 45 46 47 47 48 49 49 49 50 50 51 52 52 53 54 54 55 55 55 56 56 55 56 55 56 55 55 55 54 55 56 56 56 55
37 36 37 38 38 40 41 42 43 44 45 46 46 47 48 48 49 49 49 50 50 51 52 53 54 55 55 55 55 56 56 56 55 55 55 55 55 55 55 55 55 55 55
36 36 36 38 39 40 41 41 42 43 43 44 45 46 46 48 48 49 49 50 50 51 52 53 54 55 55 56 55 55 56 56 55 55 54 54 54 54 55 55 55 55 55
36 36 37 38 39 39 40 41 41 41 42 42 43 44 45 46 47 48 48 48 49 50 50 51 52 53 54 55 55 55 55 55 56 55 55 55 55 55 55 55 55 55 55
37 37 38 38 38 39 40 40 40 41 41 41 41 42 43 44 45 47 47 47 48 48 48 49 50 51 52 53 53 54 55 55 55 56 56 56 56 56 56 55 55 55 55
37 37 38 38 38 39 39 39 39 40 40 41 41 42 42 43 43 44 45 46 46 46 46 47 47 47 48 49 50 52 53 53 53 54 55 55 55 56 56 56 56 55 55
35 35 36 37 37 37 37 37 38 39 40 41 41 41 41 41 41 42 42 43 44 44 44 45 45 45 45 46 48 49 50 51 51 51 52 53 53 54 56 57 56 55 54
33 34 35 36 37 37 37 37 37 38 39 39 40 40 40 39 40 40 40 41 41 42 42 42 43 44 45 45 46 47 48 49 49 50 51 52 52 52 53 54 54 54 54
33 34 35 35 35 35 36 36 36 37 38 39 39 39 39 39 39 39 39 39 39 40 40 40 41 42 44 44 45 46 47 48 48 49 50 51 51 51 51 51 51 52 53
32 33 33 33 34 34 35 35 35 36 37 38 38 39 39 39 39 39 39 38 38 38 38 39 40 40 41 42 43 45 46 46 47 47 48 48 49 49 50 50 51 51 53
30 31 32 33 33 33 34 34 34 35 36 37 37 37 38 38 38 38 37 37 37 37 37 37 38 38 38 39 40 42 43 44 44 45 46 47 48 48 48 49 49 50 51
30 30 30 31 32 32 32 33 33 34 34 35 35 35 35 35 35 35 35 35 35 34 34 35 35 37 38 38 39 40 41 42 44 45 46 46 47 47 48 48 48 49 49
29 30 30 30 31 31 31 31 31 30 30 31 31 30 31 32 33 33 34 34 34 34 34 34 34 35 36 37 38 39 39 40 41 42 43 44 45 45 46 47 47 47 48
30 30 30 30 30 29 29 29 28 27 27 27 28 28 29 30 31 31 31 32 32 32 33 34 34 34 35 35 36 37 38 38 39 40 41 42 43 44 44 45 45 46 46
Wind_Direction
269 268 267 266 265 263 262 261 260 259 258 257 256 256 256 255 255 256 255 254 253 254 254 254 255 256 256 256 256 255 254 253 252 251 249 248 247 246 246 245 245 246 246
268 269 268 266 264 263 262 261 261 261 259 258 257 256 256 255 255 256 255 254 253 253 253 254 254 255 255 256 256 255 255 254 253 251 250 249 247 246 246 246 245 246 246
268 268 267 267 266 264 264 263 262 261 260 258 257 256 255 255 254 255 255 253 252 253 253 253 254 254 255 255 256 255 255 254 253 251 251 249 247 246 245 246 246 246 247
269 268 268 268 267 266 264 263 262 261 260 258 258 257 256 256 255 255 255 253 252 253 253 253 253 254 255 255 255 256 255 254 253 251 251 249 247 246 245 245 246 247 247
269 269 268 267 267 266 265 264 263 262 260 259 258 258 257 255 254 254 254 253 253 253 253 253 253 254 255 254 254 255 254 254 253 252 250 250 248 247 246 246 247 247 247
270 269 268 268 267 266 265 264 263 262 260 260 259 258 257 256 254 253 254 253 253 253 253 253 254 254 254 253 253 253 253 253 253 252 251 251 250 248 248 248 247 247 247
270 270 269 268 267 265 264 264 263 261 261 260 260 259 258 257 254 254 254 254 254 254 253 254 255 254 254 253 253 252 253 253 254 253 252 251 251 250 249 249 248 247 246
269 268 268 268 267 265 264 263 262 261 261 261 260 260 258 257 256 255 255 255 254 253 254 255 254 254 253 253 253 253 254 254 254 253 252 252 251 251 250 249 249 247 246
270 269 268 268 267 266 264 263 261 260 261 261 261 260 259 258 258 257 257 256 256 256 255 255 255 254 253 253 253 253 254 254 254 253 253 252 252 251 251 250 250 249 247
272 270 269 268 267 266 264 263 262 261 261 261 261 260 259 258 258 258 258 257 257 257 257 257 256 255 254 254 253 253 254 254 253 254 254 253 252 252 250 250 250 249 248
274 272 269 268 267 265 264 264 263 262 261 260 260 260 260 259 259 259 258 258 258 259 259 257 256 256 256 255 254 253 254 254 254 254 255 253 252 251 250 250 250 249 248
276 273 271 268 267 266 265 264 264 262 261 261 261 260 260 260 260 260 260 259 259 259 259 258 258 257 256 255 254 254 254 254 254 254 254 252 251 251 250 249 249 249 248
277 275 273 270 269 268 267 266 265 264 263 262 262 261 260 260 261 261 261 261 260 260 259 257 257 257 257 256 255 255 254 254 254 253 253 252 251 250 249 248 248 248 248
279 276 274 273 271 270 269 269 269 268 266 265 264 263 262 261 261 262 262 262 262 261 260 259 257 256 257 256 255 254 254 254 253 252 252 251 251 250 249 248 248 248 248
279 277 276 275 274 273 272 272 272 270 269 267 266 265 264 263 263 263 264 264 264 263 262 261 260 258 257 256 255 254 254 253 253 252 251 250 249 249 249 248 247 247 247
281 280 279 278 277 275 274 273 273 272 271 269 268 267 266 265 265 265 266 266 266 265 264 263 261 259 258 257 255 254 253 252 252 252 251 250 250 249 249 248 247 247 247
284 282 281 280 279 278 276 274 273 272 272 271 270 269 268 267 267 267 267 267 266 264 263 263 261 260 258 256 254 253 252 252 252 251 251 250 250 249 249 248 247 247 246
284 283 282 281 281 280 278 276 274 273 272 272 272 271 270 269 270 269 269 267 265 263 262 261 260 260 258 256 254 253 252 252 251 251 251 249 249 249 248 248 247 247 246
286 286 285 283 282 281 280 278 277 275 274 273 273 272 271 270 270 270 269 268 266 264 263 261 259 258 257 255 253 252 252 251 250 250 250 249 249 249 249 248 247 247 247
289 288 288 287 285 283 282 281 279 276 274 273 273 273 272 271 270 270 270 269 266 265 264 262 260 258 257 256 254 253 252 251 250 249 249 249 249 249 249 247 246 247 247
292 291 291 290 288 286 284 283 281 278 276 275 274 274 273 271 270 270 271 269 267 265 264 263 261 259 257 256 254 252 252 251 250 250 249 249 249 249 249 249 249 248 247
295 294 294 292 290 288 287 285 283 281 278 277 276 275 273 272 272 271 271 270 268 266 264 262 260 259 258 255 253 252 251 250 250 250 249 249 249 250 250 249 250 249 249
298 298 297 295 294 292 290 287 286 284 282 280 278 276 274 272 272 271 270 269 268 266 265 262 258 256 256 255 254 252 250 250 250 250 250 249 249 250 250 249 250 251 250
300 301 301 301 300 297 294 292 289 287 284 281 278 275 274 272 271 271 270 269 268 266 264 261 258 256 255 255 254 253 253 252 252 251 251 251 250 250 251 250 250 251 250
302 303 304 305 304 301 299 296 293 291 288 284 280 277 275 273 272 270 269 268 267 266 264 261 259 258 257 257 257 256 254 253 252 251 250 250 250 251 251 251 250 251 251
304 304 305 305 305 304 302 301 298 294 290 287 284 280 278 276 273 271 268 266 266 266 265 262 261 260 259 257 257 256 254 252 251 250 250 251 251 251 251 251 250 250 250
Height
5667 5667 5667 5666 5666 5666 5666 5667 5667 5668 5669 5670 5671 5673 5675 5677 5678 5680 5681 5683 5685 5688 5690 5692 5694 5697 5699 5702 5704 5706 5709 5712 5715 5718 5722 5725 5729 5733 5737 5741 5745 5749 5753
5656 5655 5654 5654 5654 5654 5654 5655 5655 5656 5657 5658 5659 5661 5663 5664 5666 5668 5669 5671 5674 5676 5678 5681 5683 5685 5688 5690 5693 5695 5697 5700 5703 5706 5710 5714 5718 5721 5725 5729 5734 5738 5742
5644 5643 5643 5642 5641 5642 5642 5643 5643 5644 5644 5646 5647 5649 5650 5652 5653 5655 5657 5659 5662 5664 5667 5669 5672 5674 5676 5678 5681 5683 5686 5688 5691 5694 5697 5701 5706 5710 5714 5718 5722 5726 5730
5632 5631 5630 5630 5629 5629 5630 5630 5631 5631 5632 5634 5635 5637 5638 5640 5642 5644 5645 5647 5650 5652 5655 5657 5660 5662 5664 5666 5668 5671 5673 5676 5679 5682 5685 5690 5694 5698 5703 5707 5711 5714 5718
5619 5619 5618 5618 5617 5617 5617 5618 5618 5619 5620 5621 5623 5625 5626 5628 5629 5631 5633 5635 5638 5640 5642 5645 5647 5649 5651 5654 5656 5659 5661 5664 5667 5670 5673 5677 5681 5685 5690 5695 5699 5702 5706
5607 5606 5606 5605 5605 5605 5605 5605 5606 5607 5608 5609 5611 5612 5613 5615 5617 5619 5621 5623 5625 5627 5630 5632 5634 5636 5639 5641 5643 5646 5649 5651 5654 5658 5661 5664 5668 5672 5676 5681 5686 5690 5694
5594 5594 5593 5593 5593 5593 5593 5593 5594 5595 5596 5597 5598 5599 5600 5602 5604 5606 5608 5610 5613 5615 5616 5619 5621 5623 5625 5628 5630 5633 5636 5639 5641 5644 5647 5651 5655 5658 5662 5667 5671 5676 5681
5582 5582 5581 5581 5580 5580 5581 5581 5582 5583 5583 5585 5586 5587 5588 5589 5591 5593 5595 5597 5599 5601 5603 5605 5607 5609 5611 5614 5617 5619 5622 5625 5628 5631 5634 5637 5640 5644 5648 5653 5657 5662 5667
5570 5570 5569 5569 5568 5568 5568 5568 5569 5570 5571 5572 5573 5574 5575 5577 5578 5580 5582 5584 5585 5587 5589 5591 5593 5595 5597 5600 5603 5606 5608 5611 5614 5617 5620 5623 5626 5629 5633 5638 5642 5648 5653
5558 5557 5557 5557 5556 5556 5556 5556 5557 5558 5559 5559 5560 5561 5562 5563 5565 5566 5568 5570 5571 5573 5575 5577 5579 5581 5583 5586 5588 5591 5594 5596 5599 5602 5605 5608 5611 5614 5618 5622 5627 5632 5637
5546 5545 5544 5544 5544 5544 5544 5544 5545 5545 5546 5547 5547 5548 5549 5550 5552 5553 5554 5556 5557 5559 5560 5562 5564 5566 5569 5571 5573 5576 5579 5582 5584 5587 5590 5592 5595 5599 5603 5607 5612 5617 5622
5534 5533 5532 5532 5532 5532 5532 5532 5532 5532 5533 5534 5534 5535 5536 5537 5538 5539 5540 5542 5543 5544 5546 5547 5549 5551 5554 5556 5558 5561 5564 5566 5569 5572 5574 5577 5580 5584 5588 5592 5597 5602 5607
5524 5523 5522 5521 5520 5520 5520 5519 5519 5519 5520 5520 5521 5521 5522 5523 5524 5525 5526 5527 5528 5529 5531 5532 5534 5536 5538 5541 5543 5546 5549 5551 5554 5556 5559 5562 5565 5570 5574 5578 5583 5588 5593
5513 5512 5511 5510 5509 5508 5508 5507 5507 5507 5507 5507 5507 5508 5508 5509 5510 5511 5512 5513 5514 5515 5516 5517 5519 5521 5523 5525 5528 5531 5534 5536 5539 5542 5545 5548 5551 5555 5559 5564 5569 5573 5578
5503 5501 5500 5499 5498 5497 5496 5496 5495 5494 5494 5494 5494 5495 5495 5495 5496 5497 5498 5498 5499 5500 5501 5502 5504 5505 5507 5510 5512 5515 5518 5521 5524 5527 5530 5534 5537 5541 5545 5550 5554 5559 5564
5492 5491 5490 5488 5487 5486 5485 5484 5483 5482 5481 5481 5481 5481 5482 5482 5483 5483 5483 5484 5485 5485 5486 5487 5489 5490 5492 5494 5497 5500 5503 5506 5510 5513 5516 5520 5523 5527 5531 5536 5540 5545 5550
5482 5480 5479 5477 5476 5474 5473 5472 5471 5470 5469 5469 5469 5469 5469 5469 5469 5469 5469 5470 5470 5471 5472 5473 5474 5475 5477 5479 5481 5484 5487 5491 5494 5498 5502 5506 5509 5513 5517 5521 5526 5531 5535
5472 5470 5468 5466 5464 5463 5461 5460 5459 5458 5457 5457 5456 5456 5456 5456 5456 5456 5456 5456 5456 5457 5458 5459 5460 5461 5463 5464 5467 5469 5473 5476 5480 5483 5487 5491 5495 5499 5503 5507 5511 5516 5522
5462 5459 5457 5455 5453 5451 5450 5448 5447 5446 5445 5444 5443 5443 5443 5443 5443 5443 5442 5442 5442 5443 5444 5445 5446 5447 5449 5450 5453 5455 5459 5462 5466 5470 5473 5477 5481 5485 5489 5493 5499 5504 5508
5452 5449 5447 5444 5442 5440 5438 5437 5435 5434 5433 5432 5431 5431 5430 5430 5430 5430 5429 5429 5429 5430 5430 5431 5433 5434 5436 5437 5439 5442 5445 5449 5453 5457 5461 5464 5468 5471 5474 5479 5484 5489 5493
5443 5440 5437 5434 5432 5429 5428 5426 5424 5423 5421 5420 5419 5419 5418 5418 5418 5417 5417 5417 5417 5417 5418 5419 5420 5421 5423 5424 5426 5429 5432 5436 5440 5443 5448 5451 5454 5458 5461 5466 5470 5474 5478
5435 5431 5428 5425 5422 5419 5417 5415 5413 5411 5410 5409 5408 5407 5406 5406 5405 5405 5405 5405 5405 5405 5406 5406 5407 5408 5410 5412 5414 5416 5419 5422 5426 5430 5434 5437 5441 5444 5448 5452 5456 5460 5464
5426 5423 5420 5416 5413 5410 5407 5405 5403 5400 5398 5397 5396 5394 5393 5393 5393 5393 5393 5393 5393 5394 5394 5395 5396 5397 5398 5400 5402 5404 5407 5409 5413 5416 5420 5424 5427 5431 5435 5438 5442 5446 5449
5418 5415 5411 5408 5404 5401 5398 5395 5392 5389 5387 5385 5384 5383 5382 5382 5381 5381 5381 5382 5382 5382 5383 5383 5384 5385 5387 5388 5390 5393 5395 5398 5400 5404 5407 5410 5414 5418 5421 5425 5428 5432 5435
5411 5407 5403 5400 5396 5392 5389 5385 5382 5379 5377 5375 5374 5372 5372 5371 5371 5370 5370 5370 5371 5371 5372 5372 5373 5374 5376 5377 5379 5381 5383 5386 5388 5391 5395 5398 5402 5405 5408 5411 5415 5418 5421
5403 5400 5396 5392 5388 5384 5380 5377 5373 5371 5368 5366 5364 5363 5362 5361 5360 5360 5360 5359 5360 5360 5360 5361 5362 5363 5365 5366 5367 5369 5371 5374 5376 5379 5383 5386 5390 5393 5396 5399 5402 5405 5408